Terug naar catalogus

STARLINK-34621

ActiefCommunicatieVLEO
NORAD 64774·PAYLOAD·🇺🇸 United States

Gelanceerd Jul 8, 2025 vanaf Cape Canaveral Space Force Station

Loading…

Volgende Passages (komende 24 uur)

TLE

VersSource: CelesTrak SupGP

Epoch: Sep 15, 2026, 03:01 UTC

1 64774C 25147V   26258.12618056 -.00023192  00000+0 -68532-3 0  2582
2 64774  53.1588  82.5648 0001201  81.6742 117.0059 15.34397191    12

Volg STARLINK-34621 in realtime met AllMySat

Download on the App Store